DECAYED

COSMOS 2251 DEB, 38485 (Decayed)

Orbit data source: Space-Track

COSMOS 2251 DEB, 38485 was space debris in LEO originally from a launch on Wed, 16 Jun 1993 UTC launched from the Plesetsk Missile And Space Complex (PKMTR). The debris from Iridium 33, an American commercial communications satellite, has been tracked extensively since its accidental collision with the defunct Russian satellite Cosmos 2251 in 2009. This event, occurring at high speed in low Earth orbit (LEO), generated thousands of pieces of space debris, significantly increasing the risk of further collisions. The Iridium 33 debris cloud has impacted space traffic management and orbital debris mitigation strategies, making it a subject of ongoing study in space situational awareness.

Not visible in the next 10 days
Identifier
38485, 1993-036BTV
Orbit
Decayed
Country
Flag of CISCIS
Related business
Manufacturer
Unknown
Mission
Decayed spacecraft
Bus & Motor
Unknown
Mass
Unknown
Launch date (UTC)
1993-06-16 (33 years ago)
Launch vehicle
Unknown
Launch site
Plesetsk Missile And Space Complex (PKMTR)
Object type
Payload
Rocket body
Debris
Shape & HBR
Unknown shape, 0.1 m
Radar Cross Section
Small (<0.1 m²)

Expand to show TLE details & history
Last TLE update: 6 months ago

TLE from 6 months ago
0 COSMOS 2251 DEB
1 38485U 93036BTV 25318.38782400  .01011848  00000-0  80213-2 0  9999
2 38485  73.9810 194.9886 0010247 147.6012 212.5842 15.68613644171892
Epoch: 2025-11-14T09:18Z
TLE epoch observation values (Epoch: 2025-11-14T09:18:27.993Z)
Latitude
-0.00001°
Longitude
1.63992°
Altitude
371.456 km
Speed
7.684 km/s
True Right ascension
12h 59m 57s
True Declination
0° 00' 00"
Sunlit
Object was in daylight at epoch
Visualization orbit readout
Latitude
Unknown
Longitude
Unknown
Altitude
Unknown
Speed
Unknown
Apparent Right ascension
Unknown
Apparent Declination
Unknown
Sunlit
N/A
Visualization observer readout
Local Sidereal Time
09:18:34
Azimuth
Unknown
Elevation
Unknown
Doppler factor
Unknown
Orbital elements
Apogee altitude
367.255 km
Perigee altitude
353.445 km
Semi-major axis
6,738.487 km
Eccentricity
0.00102
Inclination
73.981°
RAAN
194.9886°
Arg. of periapsis
147.6012°
True anomaly
212.52103°
Mean anomaly
212.5842°
Eccentric anomaly
212.55261°
Mean motion
3.92373 °/min
Orbital period
91.75 mins
BSTAR
0.0080213
Loading maneuver chart data...
Computing Atmospheric mass density...

Documentation

Showing up to 5 results
|